Time,TemperatureF,DewpointF,PressureIn,WindDirection,WindDirectionDegrees,WindSpeedMPH,WindSpeedGustMPH,Humidity,HourlyPrecipIn,Conditions,Clouds,dailyrainin,SolarRadiationWatts/m^2,SoftwareType,DateUTC
2013-04-06 00:00:00,45.2,22.9,30.05,North,360,4.0,11.0,41,0.00,,,0.00,0.00,VWS V14.01,2013-04-06 04:00:00,
2013-04-06 00:02:00,45.0,23.3,30.04,NNW,343,1.0,5.0,42,0.00,,,0.00,0.00,VWS V14.01,2013-04-06 04:02:00,
2013-04-06 00:07:00,44.7,23.0,30.05,NNW,338,3.0,3.0,42,0.00,,,0.00,0.00,VWS V14.01,2013-04-06 04:07:00,
2013-04-06 00:12:00,44.3,22.7,30.05,NNW,340,0.0,7.0,42,0.00,,,0.00,0.00,VWS V14.01,2013-04-06 04:12:00,
2013-04-06 00:17:00,44.0,22.4,30.05,North,360,4.0,6.0,42,0.00,,,0.00,0.00,VWS V14.01,2013-04-06 04:17:00,
2013-04-06 00:22:00,43.8,22.2,30.05,NNE,26,2.0,5.0,42,0.00,,,0.00,0.00,VWS V14.01,2013-04-06 04:22:00,
2013-04-06 00:27:00,43.6,22.0,30.06,NNE,15,0.0,3.0,42,0.00,,,0.00,0.00,VWS V14.01,2013-04-06 04:27:00,
2013-04-06 00:32:00,43.3,22.3,30.06,NNE,31,0.0,2.0,43,0.00,,,0.00,0.00,VWS V14.01,2013-04-06 04:32:00,
2013-04-06 00:37:00,42.9,22.0,30.07,North,5,0.0,4.0,43,0.00,,,0.00,0.00,VWS V14.01,2013-04-06 04:37:00,
2013-04-06 00:42:00,42.5,22.1,30.07,North,360,1.0,4.0,44,0.00,,,0.00,0.00,VWS V14.01,2013-04-06 04:42:00,
2013-04-06 00:47:00,42.2,21.9,30.07,NNE,17,0.0,3.0,44,0.00,,,0.00,0.00,VWS V14.01,2013-04-06 04:47:00,
2013-04-06 00:53:00,41.9,22.1,30.07,North,9,4.0,6.0,45,0.00,,,0.00,0.00,VWS V14.01,2013-04-06 04:53:00,
2013-04-06 00:58:00,41.6,21.9,30.07,North,360,4.0,6.0,45,0.00,,,0.00,0.00,VWS V14.01,2013-04-06 04:58:00,
2013-04-06 01:03:00,41.4,21.7,30.08,North,360,2.0,5.0,45,0.00,,,0.00,0.00,VWS V14.01,2013-04-06 05:03:00,
2013-04-06 01:08:00,41.3,21.6,30.08,North,5,5.0,8.0,45,0.00,,,0.00,0.00,VWS V14.01,2013-04-06 05:08:00,
2013-04-06 01:14:00,41.3,22.1,30.08,North,360,5.0,7.0,46,0.00,,,0.00,0.00,VWS V14.01,2013-04-06 05:14:00,
2013-04-06 01:19:00,41.3,22.1,30.09,North,360,3.0,6.0,46,0.00,,,0.00,0.00,VWS V14.01,2013-04-06 05:19:00,
2013-04-06 01:24:00,41.3,22.1,30.09,NNE,12,3.0,6.0,46,0.00,,,0.00,0.00,VWS V14.01,2013-04-06 05:24:00,
2013-04-06 01:29:00,41.1,21.9,30.09,NNW,348,3.0,7.0,46,0.00,,,0.00,0.00,VWS V14.01,2013-04-06 05:29:00,
2013-04-06 01:34:00,40.9,22.2,30.09,North,355,2.0,5.0,47,0.00,,,0.00,0.00,VWS V14.01,2013-04-06 05:34:00,
2013-04-06 01:40:00,40.8,22.1,30.09,NW,315,4.0,7.0,47,0.00,,,0.00,0.00,VWS V14.01,2013-04-06 05:40:00,
2013-04-06 01:45:00,40.7,22.5,30.10,North,360,0.0,5.0,48,0.00,,,0.00,0.00,VWS V14.01,2013-04-06 05:45:00,
2013-04-06 01:50:00,40.6,22.5,30.10,NNW,329,3.0,6.0,48,0.00,,,0.00,0.00,VWS V14.01,2013-04-06 05:50:00,
2013-04-06 01:55:00,40.4,22.3,30.10,NNW,346,2.0,6.0,48,0.00,,,0.00,0.00,VWS V14.01,2013-04-06 05:55:00,
2013-04-06 02:00:00,40.4,22.8,30.10,North,355,0.0,8.0,49,0.00,,,0.00,0.00,VWS V14.01,2013-04-06 06:00:00,
2013-04-06 02:05:00,40.3,22.7,30.11,NW,314,3.0,8.0,49,0.00,,,0.00,0.00,VWS V14.01,2013-04-06 06:05:00,
2013-04-06 02:10:00,40.2,22.6,30.11,NNW,333,4.0,9.0,49,0.00,,,0.00,0.00,VWS V14.01,2013-04-06 06:10:00,
2013-04-06 02:15:00,40.1,23.0,30.11,NNW,347,3.0,6.0,50,0.00,,,0.00,0.00,VWS V14.01,2013-04-06 06:15:00,
2013-04-06 02:20:00,40.0,22.9,30.11,North,355,4.0,6.0,50,0.00,,,0.00,0.00,VWS V14.01,2013-04-06 06:20:00,
2013-04-06 02:25:00,40.0,22.9,30.11,North,349,0.0,1.0,50,0.00,,,0.00,0.00,VWS V14.01,2013-04-06 06:25:00,
2013-04-06 02:31:00,39.8,23.2,30.12,North,355,0.0,0.0,51,0.00,,,0.00,0.00,VWS V14.01,2013-04-06 06:31:00,
2013-04-06 02:36:00,39.7,23.1,30.12,NNE,13,4.0,5.0,51,0.00,,,0.00,0.00,VWS V14.01,2013-04-06 06:36:00,
2013-04-06 02:41:00,39.5,22.9,30.12,North,350,3.0,4.0,51,0.00,,,0.00,0.00,VWS V14.01,2013-04-06 06:41:00,
2013-04-06 02:47:00,39.2,23.1,30.12,North,355,5.0,5.0,52,0.00,,,0.00,0.00,VWS V14.01,2013-04-06 06:47:00,
2013-04-06 02:52:00,39.0,23.3,30.12,North,349,0.0,1.0,53,0.00,,,0.00,0.00,VWS V14.01,2013-04-06 06:52:00,
2013-04-06 02:57:00,38.8,23.1,30.12,North,350,0.0,0.0,53,0.00,,,0.00,0.00,VWS V14.01,2013-04-06 06:57:00,
2013-04-06 03:02:00,38.6,23.4,30.12,North,355,0.0,1.0,54,0.00,,,0.00,0.00,VWS V14.01,2013-04-06 07:02:00,
2013-04-06 03:07:00,38.4,23.2,30.12,NNE,23,0.0,3.0,54,0.00,,,0.00,0.00,VWS V14.01,2013-04-06 07:07:00,
2013-04-06 03:12:00,38.2,23.5,30.13,NNE,23,0.0,0.0,55,0.00,,,0.00,0.00,VWS V14.01,2013-04-06 07:12:00,
2013-04-06 03:17:00,38.0,23.3,30.13,NNE,23,0.0,0.0,55,0.00,,,0.00,0.00,VWS V14.01,2013-04-06 07:17:00,
2013-04-06 03:22:00,37.7,23.4,30.14,North,5,0.0,4.0,56,0.00,,,0.00,0.00,VWS V14.01,2013-04-06 07:22:00,
2013-04-06 03:28:00,37.5,23.2,30.14,NNE,13,4.0,4.0,56,0.00,,,0.00,0.00,VWS V14.01,2013-04-06 07:28:00,
2013-04-06 03:33:00,37.3,23.5,30.14,North,9,4.0,6.0,57,0.00,,,0.00,0.00,VWS V14.01,2013-04-06 07:33:00,
2013-04-06 03:38:00,37.3,23.9,30.15,North,355,5.0,7.0,58,0.00,,,0.00,0.00,VWS V14.01,2013-04-06 07:38:00,
2013-04-06 03:43:00,37.4,24.0,30.14,NNW,348,5.0,10.0,58,0.00,,,0.00,0.00,VWS V14.01,2013-04-06 07:43:00,
2013-04-06 03:48:00,37.4,24.0,30.14,NNW,333,6.0,9.0,58,0.00,,,0.00,0.00,VWS V14.01,2013-04-06 07:48:00,
2013-04-06 03:53:00,37.5,24.1,30.15,NNW,344,7.0,11.0,58,0.00,,,0.00,0.00,VWS V14.01,2013-04-06 07:53:00,
2013-04-06 03:58:00,37.6,24.2,30.15,NNW,331,6.0,9.0,58,0.00,,,0.00,0.00,VWS V14.01,2013-04-06 07:58:00,
2013-04-06 04:03:00,37.5,24.1,30.15,NNW,344,5.0,12.0,58,0.00,,,0.00,0.00,VWS V14.01,2013-04-06 08:03:00,
2013-04-06 04:09:00,37.5,24.1,30.15,NNW,341,3.0,9.0,58,0.00,,,0.00,0.00,VWS V14.01,2013-04-06 08:09:00,
2013-04-06 04:14:00,37.4,24.0,30.15,North,360,4.0,8.0,58,0.00,,,0.00,0.00,VWS V14.01,2013-04-06 08:14:00,
2013-04-06 04:19:00,37.3,23.9,30.15,NNW,329,1.0,5.0,58,0.00,,,0.00,0.00,VWS V14.01,2013-04-06 08:19:00,
2013-04-06 04:24:00,37.2,23.8,30.15,NNW,336,0.0,4.0,58,0.00,,,0.00,0.00,VWS V14.01,2013-04-06 08:24:00,
2013-04-06 04:30:00,37.1,23.7,30.15,NNW,345,3.0,4.0,58,0.00,,,0.00,0.00,VWS V14.01,2013-04-06 08:30:00,
2013-04-06 04:35:00,37.0,23.6,30.15,NNW,344,4.0,8.0,58,0.00,,,0.00,0.00,VWS V14.01,2013-04-06 08:35:00,
2013-04-06 04:40:00,36.9,23.9,30.15,NNW,334,3.0,6.0,59,0.00,,,0.00,0.00,VWS V14.01,2013-04-06 08:40:00,
2013-04-06 04:45:00,36.7,23.7,30.15,NNW,342,5.0,7.0,59,0.00,,,0.00,0.00,VWS V14.01,2013-04-06 08:45:00,
2013-04-06 04:50:00,36.6,23.6,30.15,NNW,336,4.0,6.0,59,0.00,,,0.00,0.00,VWS V14.01,2013-04-06 08:50:00,
2013-04-06 04:55:00,36.5,23.5,30.15,NW,322,3.0,7.0,59,0.00,,,0.00,0.00,VWS V14.01,2013-04-06 08:55:00,
2013-04-06 05:00:00,36.4,23.9,30.15,NW,326,3.0,7.0,60,0.00,,,0.00,0.00,VWS V14.01,2013-04-06 09:00:00,
2013-04-06 05:05:00,36.2,23.7,30.15,NW,326,3.0,8.0,60,0.00,,,0.00,0.00,VWS V14.01,2013-04-06 09:05:00,
2013-04-06 05:10:00,36.1,24.0,30.15,NNW,335,4.0,4.0,61,0.00,,,0.00,0.00,VWS V14.01,2013-04-06 09:10:00,
2013-04-06 05:15:00,35.9,23.8,30.15,NNW,342,4.0,4.0,61,0.00,,,0.00,0.00,VWS V14.01,2013-04-06 09:15:00,
2013-04-06 05:21:00,35.8,24.1,30.16,NNW,348,4.0,6.0,62,0.00,,,0.00,0.00,VWS V14.01,2013-04-06 09:21:00,
2013-04-06 05:26:00,35.7,24.0,30.16,North,355,4.0,5.0,62,0.00,,,0.00,0.00,VWS V14.01,2013-04-06 09:26:00,
2013-04-06 05:31:00,35.7,24.0,30.16,North,350,4.0,5.0,62,0.00,,,0.00,0.00,VWS V14.01,2013-04-06 09:31:00,
2013-04-06 05:37:00,35.6,23.9,30.16,NNW,340,0.0,4.0,62,0.00,,,0.00,0.00,VWS V14.01,2013-04-06 09:37:00,
2013-04-06 05:42:00,35.5,23.8,30.17,NNW,331,2.0,6.0,62,0.00,,,0.00,0.00,VWS V14.01,2013-04-06 09:42:00,
2013-04-06 05:47:00,35.4,23.7,30.17,NW,321,3.0,5.0,62,0.00,,,0.00,0.00,VWS V14.01,2013-04-06 09:47:00,
2013-04-06 05:52:00,35.3,23.6,30.18,NW,310,6.0,6.0,62,0.00,,,0.00,0.00,VWS V14.01,2013-04-06 09:52:00,
2013-04-06 05:57:00,35.3,23.6,30.18,NNW,348,0.0,3.0,62,0.00,,,0.00,0.00,VWS V14.01,2013-04-06 09:57:00,
2013-04-06 06:02:00,35.3,23.6,30.19,NNW,337,5.0,5.0,62,0.00,,,0.00,0.00,VWS V14.01,2013-04-06 10:02:00,
2013-04-06 06:07:00,35.2,23.5,30.19,NNW,329,1.0,6.0,62,0.00,,,0.00,0.00,VWS V14.01,2013-04-06 10:07:00,
2013-04-06 06:12:00,35.2,23.9,30.19,NNW,331,3.0,8.0,63,0.00,,,0.00,0.00,VWS V14.01,2013-04-06 10:12:00,
2013-04-06 06:17:00,35.2,23.5,30.19,NNW,331,0.0,5.0,62,0.00,,,0.00,0.00,VWS V14.01,2013-04-06 10:17:00,
2013-04-06 06:22:00,35.1,23.8,30.20,NNW,331,3.0,4.0,63,0.00,,,0.00,0.00,VWS V14.01,2013-04-06 10:22:00,
2013-04-06 06:28:00,35.0,23.7,30.20,NNW,343,0.0,4.0,63,0.00,,,0.00,0.00,VWS V14.01,2013-04-06 10:28:00,
2013-04-06 06:33:00,35.0,23.7,30.20,North,360,4.0,5.0,63,0.00,,,0.00,0.00,VWS V14.01,2013-04-06 10:33:00,
2013-04-06 06:38:00,34.9,23.6,30.21,NNW,331,1.0,5.0,63,0.00,,,0.00,0.00,VWS V14.01,2013-04-06 10:38:00,
2013-04-06 06:43:00,34.8,23.9,30.22,NNW,342,3.0,5.0,64,0.00,,,0.00,0.00,VWS V14.01,2013-04-06 10:43:00,
2013-04-06 06:48:00,34.7,23.8,30.22,NNW,346,2.0,4.0,64,0.00,,,0.00,5.00,VWS V14.01,2013-04-06 10:48:00,
2013-04-06 06:53:00,34.7,23.8,30.22,NNW,337,0.0,0.0,64,0.00,,,0.00,7.00,VWS V14.01,2013-04-06 10:53:00,
2013-04-06 06:58:00,34.6,23.7,30.23,NNW,337,0.0,0.0,64,0.00,,,0.00,11.00,VWS V14.01,2013-04-06 10:58:00,
2013-04-06 07:03:00,34.5,23.2,30.23,NNW,337,0.0,0.0,63,0.00,,,0.00,12.00,VWS V14.01,2013-04-06 11:03:00,
2013-04-06 07:08:00,34.4,23.1,30.24,NNW,337,0.0,0.0,63,0.00,,,0.00,16.00,VWS V14.01,2013-04-06 11:08:00,
2013-04-06 07:13:00,34.4,23.5,30.24,NNW,337,0.0,0.0,64,0.00,,,0.00,18.00,VWS V14.01,2013-04-06 11:13:00,
2013-04-06 07:19:00,34.3,23.4,30.24,NNW,337,0.0,0.0,64,0.00,,,0.00,21.00,VWS V14.01,2013-04-06 11:19:00,
2013-04-06 07:24:00,34.1,23.6,30.24,NNW,337,0.0,0.0,65,0.00,,,0.00,23.00,VWS V14.01,2013-04-06 11:24:00,
2013-04-06 07:29:00,33.9,23.4,30.24,NNW,337,0.0,0.0,65,0.00,,,0.00,25.00,VWS V14.01,2013-04-06 11:29:00,
2013-04-06 07:33:00,33.8,23.3,30.24,NNW,337,0.0,0.0,65,0.00,,,0.00,26.00,VWS V14.01,2013-04-06 11:33:00,
2013-04-06 07:38:00,33.7,23.6,30.24,NNW,337,0.0,0.0,66,0.00,,,0.00,28.00,VWS V14.01,2013-04-06 11:38:00,
2013-04-06 07:43:00,33.7,23.6,30.25,NNW,337,0.0,0.0,66,0.00,,,0.00,30.00,VWS V14.01,2013-04-06 11:43:00,
2013-04-06 07:48:00,33.7,23.9,30.25,NNW,340,0.0,0.0,67,0.00,,,0.00,30.00,VWS V14.01,2013-04-06 11:48:00,
2013-04-06 07:53:00,33.8,24.0,30.26,NNW,340,0.0,0.0,67,0.00,,,0.00,32.00,VWS V14.01,2013-04-06 11:53:00,
2013-04-06 07:59:00,34.2,24.4,30.26,North,350,0.0,3.0,67,0.00,,,0.00,33.00,VWS V14.01,2013-04-06 11:59:00,
2013-04-06 08:04:00,34.5,24.3,30.26,North,355,3.0,5.0,66,0.00,,,0.00,35.00,VWS V14.01,2013-04-06 12:04:00,
2013-04-06 08:09:00,35.1,24.9,30.27,NNE,22,0.0,3.0,66,0.00,,,0.00,90.00,VWS V14.01,2013-04-06 12:09:00,
2013-04-06 08:14:00,35.5,24.9,30.27,North,360,5.0,5.0,65,0.00,,,0.00,83.00,VWS V14.01,2013-04-06 12:14:00,
2013-04-06 08:19:00,36.0,25.4,30.27,North,360,3.0,6.0,65,0.00,,,0.00,113.00,VWS V14.01,2013-04-06 12:19:00,
2013-04-06 08:25:00,36.4,25.4,30.27,North,355,0.0,7.0,64,0.00,,,0.00,132.00,VWS V14.01,2013-04-06 12:25:00,
2013-04-06 08:30:00,36.8,25.4,30.27,North,350,0.0,8.0,63,0.00,,,0.00,139.00,VWS V14.01,2013-04-06 12:30:00,
2013-04-06 08:35:00,37.1,25.3,30.28,North,11,0.0,8.0,62,0.00,,,0.00,171.00,VWS V14.01,2013-04-06 12:35:00,
2013-04-06 08:40:00,37.4,25.6,30.28,NNE,12,5.0,6.0,62,0.00,,,0.00,192.00,VWS V14.01,2013-04-06 12:40:00,
2013-04-06 08:45:00,37.7,25.9,30.28,North,355,0.0,7.0,62,0.00,,,0.00,236.00,VWS V14.01,2013-04-06 12:45:00,
2013-04-06 08:50:00,38.0,25.8,30.28,North,360,4.0,8.0,61,0.00,,,0.00,257.00,VWS V14.01,2013-04-06 12:50:00,
2013-04-06 08:55:00,38.2,26.0,30.28,North,355,5.0,6.0,61,0.00,,,0.00,283.00,VWS V14.01,2013-04-06 12:55:00,
2013-04-06 09:00:00,38.5,25.8,30.28,NW,326,3.0,9.0,60,0.00,,,0.00,311.00,VWS V14.01,2013-04-06 13:00:00,
2013-04-06 09:05:00,38.8,25.7,30.28,North,360,3.0,8.0,59,0.00,,,0.00,334.00,VWS V14.01,2013-04-06 13:05:00,
2013-04-06 09:10:00,39.0,25.9,30.28,North,11,4.0,8.0,59,0.00,,,0.00,352.00,VWS V14.01,2013-04-06 13:10:00,
2013-04-06 09:15:00,39.4,26.3,30.28,NNW,348,4.0,6.0,59,0.00,,,0.00,367.00,VWS V14.01,2013-04-06 13:15:00,
2013-04-06 09:20:00,39.8,25.8,30.29,NNW,348,2.0,2.0,57,0.00,,,0.00,383.00,VWS V14.01,2013-04-06 13:20:00,
2013-04-06 09:26:00,40.3,26.3,30.29,NW,319,2.0,6.0,57,0.00,,,0.00,401.00,VWS V14.01,2013-04-06 13:26:00,
2013-04-06 09:32:00,40.6,26.1,30.29,NNW,339,0.0,1.0,56,0.00,,,0.00,411.00,VWS V14.01,2013-04-06 13:32:00,
2013-04-06 09:37:00,41.1,26.2,30.29,North,9,1.0,6.0,55,0.00,,,0.00,415.00,VWS V14.01,2013-04-06 13:37:00,
2013-04-06 09:42:00,41.5,26.5,30.29,NNW,346,0.0,0.0,55,0.00,,,0.00,411.00,VWS V14.01,2013-04-06 13:42:00,
2013-04-06 09:47:00,41.7,26.3,30.29,NNW,343,4.0,4.0,54,0.00,,,0.00,404.00,VWS V14.01,2013-04-06 13:47:00,
2013-04-06 09:52:00,41.8,25.0,30.29,NNE,30,0.0,9.0,51,0.00,,,0.00,397.00,VWS V14.01,2013-04-06 13:52:00,
2013-04-06 09:57:00,41.7,25.4,30.29,WNW,290,0.0,3.0,52,0.00,,,0.00,385.00,VWS V14.01,2013-04-06 13:57:00,
2013-04-06 10:03:00,41.8,25.5,30.29,NW,325,4.0,6.0,52,0.00,,,0.00,380.00,VWS V14.01,2013-04-06 14:03:00,
2013-04-06 10:08:00,42.0,26.1,30.29,NNW,347,7.0,7.0,53,0.00,,,0.00,378.00,VWS V14.01,2013-04-06 14:08:00,
2013-04-06 10:13:00,42.1,25.8,30.29,North,5,0.0,5.0,52,0.00,,,0.00,381.00,VWS V14.01,2013-04-06 14:13:00,
2013-04-06 10:18:00,42.4,26.0,30.30,North,355,2.0,5.0,52,0.00,,,0.00,399.00,VWS V14.01,2013-04-06 14:18:00,
2013-04-06 10:23:00,42.7,25.4,30.30,NW,322,0.0,8.0,50,0.00,,,0.00,420.00,VWS V14.01,2013-04-06 14:23:00,
2013-04-06 10:28:00,42.9,25.1,30.29,WNW,296,3.0,5.0,49,0.00,,,0.00,450.00,VWS V14.01,2013-04-06 14:28:00,
2013-04-06 10:33:00,43.5,27.1,30.30,NE,44,0.0,4.0,52,0.00,,,0.00,487.00,VWS V14.01,2013-04-06 14:33:00,
2013-04-06 10:38:00,44.1,26.7,30.30,ENE,72,0.0,5.0,50,0.00,,,0.00,531.00,VWS V14.01,2013-04-06 14:38:00,
2013-04-06 10:43:00,44.1,25.7,30.30,SE,146,0.0,2.0,48,0.00,,,0.00,568.00,VWS V14.01,2013-04-06 14:43:00,
2013-04-06 10:49:00,43.7,26.3,30.30,SE,145,0.0,3.0,50,0.00,,,0.00,603.00,VWS V14.01,2013-04-06 14:49:00,
2013-04-06 10:54:00,44.4,26.5,30.30,NE,36,4.0,5.0,49,0.00,,,0.00,626.00,VWS V14.01,2013-04-06 14:54:00,
2013-04-06 10:59:00,44.7,25.2,30.30,NE,52,3.0,5.0,46,0.00,,,0.00,638.00,VWS V14.01,2013-04-06 14:59:00,
2013-04-06 11:04:00,44.9,27.4,30.30,South,175,0.0,5.0,50,0.00,,,0.00,647.00,VWS V14.01,2013-04-06 15:04:00,
2013-04-06 11:09:00,45.0,26.5,30.30,North,351,0.0,4.0,48,0.00,,,0.00,635.00,VWS V14.01,2013-04-06 15:09:00,
2013-04-06 11:15:00,44.8,24.8,30.30,North,355,0.0,8.0,45,0.00,,,0.00,612.00,VWS V14.01,2013-04-06 15:15:00,
2013-04-06 11:20:00,44.5,25.5,30.29,SSW,206,5.0,6.0,47,0.00,,,0.00,587.00,VWS V14.01,2013-04-06 15:20:00,
2013-04-06 11:25:00,44.8,27.8,30.29,SSW,202,4.0,5.0,51,0.00,,,0.00,557.00,VWS V14.01,2013-04-06 15:25:00,
2013-04-06 11:30:00,45.6,28.0,30.29,SE,136,0.0,6.0,50,0.00,,,0.00,536.00,VWS V14.01,2013-04-06 15:30:00,
2013-04-06 11:35:00,46.3,26.7,30.29,North,350,7.0,7.0,46,0.00,,,0.00,527.00,VWS V14.01,2013-04-06 15:35:00,
2013-04-06 11:40:00,46.6,26.4,30.29,NNE,13,3.0,7.0,45,0.00,,,0.00,534.00,VWS V14.01,2013-04-06 15:40:00,
2013-04-06 11:45:00,46.5,25.8,30.30,North,355,0.0,5.0,44,0.00,,,0.00,559.00,VWS V14.01,2013-04-06 15:45:00,
2013-04-06 11:50:00,46.5,25.8,30.29,NW,323,5.0,5.0,44,0.00,,,0.00,598.00,VWS V14.01,2013-04-06 15:50:00,
2013-04-06 11:55:00,46.5,25.2,30.29,West,277,0.0,7.0,43,0.00,,,0.00,647.00,VWS V14.01,2013-04-06 15:55:00,
2013-04-06 12:00:00,46.6,26.4,30.29,SSW,198,2.0,5.0,45,0.00,,,0.00,689.00,VWS V14.01,2013-04-06 16:00:00,
2013-04-06 12:05:00,47.0,27.8,30.29,NW,306,1.0,1.0,47,0.00,,,0.00,700.00,VWS V14.01,2013-04-06 16:05:00,
2013-04-06 12:11:00,47.3,26.5,30.29,NW,320,7.0,8.0,44,0.00,,,0.00,684.00,VWS V14.01,2013-04-06 16:11:00,
2013-04-06 12:16:00,47.4,27.7,30.29,NNW,333,4.0,6.0,46,0.00,,,0.00,635.00,VWS V14.01,2013-04-06 16:16:00,
2013-04-06 12:21:00,47.3,26.5,30.28,WNW,301,0.0,3.0,44,0.00,,,0.00,599.00,VWS V14.01,2013-04-06 16:21:00,
2013-04-06 12:26:00,47.5,27.2,30.28,NNW,334,0.0,0.0,45,0.00,,,0.00,584.00,VWS V14.01,2013-04-06 16:26:00,
2013-04-06 12:31:00,47.6,26.2,30.28,South,183,0.0,0.0,43,0.00,,,0.00,601.00,VWS V14.01,2013-04-06 16:31:00,
2013-04-06 12:36:00,48.0,27.1,30.28,NNE,24,0.0,5.0,44,0.00,,,0.00,647.00,VWS V14.01,2013-04-06 16:36:00,
2013-04-06 12:42:00,48.7,27.2,30.28,NNW,331,0.0,5.0,43,0.00,,,0.00,712.00,VWS V14.01,2013-04-06 16:42:00,
2013-04-06 12:47:00,49.0,27.5,30.28,NW,310,4.0,6.0,43,0.00,,,0.00,751.00,VWS V14.01,2013-04-06 16:47:00,
2013-04-06 12:52:00,49.0,29.1,30.28,WSW,256,2.0,3.0,46,0.00,,,0.00,751.00,VWS V14.01,2013-04-06 16:52:00,
2013-04-06 12:57:00,49.0,26.3,30.28,WNW,286,3.0,3.0,41,0.00,,,0.00,729.00,VWS V14.01,2013-04-06 16:57:00,
2013-04-06 13:02:00,49.2,27.1,30.27,NW,306,1.0,5.0,42,0.00,,,0.00,735.00,VWS V14.01,2013-04-06 17:02:00,
2013-04-06 13:07:00,49.4,27.3,30.27,NW,313,0.0,4.0,42,0.00,,,0.00,761.00,VWS V14.01,2013-04-06 17:07:00,
2013-04-06 13:12:00,49.5,26.2,30.27,NW,318,0.0,0.0,40,0.00,,,0.00,802.00,VWS V14.01,2013-04-06 17:12:00,
2013-04-06 13:17:00,50.1,27.9,30.27,NW,318,4.0,5.0,42,0.00,,,0.00,828.00,VWS V14.01,2013-04-06 17:17:00,
2013-04-06 13:22:00,50.4,27.0,30.27,NW,322,0.0,5.0,40,0.00,,,0.00,826.00,VWS V14.01,2013-04-06 17:22:00,
2013-04-06 13:28:00,50.3,28.1,30.27,NNW,341,7.0,7.0,42,0.00,,,0.00,828.00,VWS V14.01,2013-04-06 17:28:00,
2013-04-06 13:33:00,50.3,27.5,30.27,NNE,28,0.0,5.0,41,0.00,,,0.00,824.00,VWS V14.01,2013-04-06 17:33:00,
2013-04-06 13:38:00,50.8,29.1,30.27,South,172,0.0,3.0,43,0.00,,,0.00,823.00,VWS V14.01,2013-04-06 17:38:00,
2013-04-06 13:43:00,51.5,27.4,30.27,SSW,196,5.0,8.0,39,0.00,,,0.00,824.00,VWS V14.01,2013-04-06 17:43:00,
2013-04-06 13:48:00,51.5,30.9,30.27,SSW,207,2.0,2.0,45,0.00,,,0.00,823.00,VWS V14.01,2013-04-06 17:48:00,
2013-04-06 13:53:00,51.9,29.5,30.26,ESE,108,0.0,7.0,42,0.00,,,0.00,823.00,VWS V14.01,2013-04-06 17:53:00,
2013-04-06 13:58:00,52.1,29.7,30.26,SE,130,0.0,10.0,42,0.00,,,0.00,821.00,VWS V14.01,2013-04-06 17:58:00,
2013-04-06 14:03:00,52.2,28.6,30.26,SSW,201,1.0,5.0,40,0.00,,,0.00,816.00,VWS V14.01,2013-04-06 18:03:00,
2013-04-06 14:08:00,52.2,29.8,30.26,South,190,4.0,7.0,42,0.00,,,0.00,817.00,VWS V14.01,2013-04-06 18:08:00,
2013-04-06 14:14:00,52.6,29.6,30.25,South,175,0.0,1.0,41,0.00,,,0.00,814.00,VWS V14.01,2013-04-06 18:14:00,
2013-04-06 14:20:00,52.6,28.4,30.25,South,176,0.0,8.0,39,0.00,,,0.00,809.00,VWS V14.01,2013-04-06 18:20:00,
2013-04-06 14:25:00,52.4,28.2,30.25,WSW,247,2.0,5.0,39,0.00,,,0.00,803.00,VWS V14.01,2013-04-06 18:25:00,
2013-04-06 14:30:00,52.7,27.8,30.25,SSW,200,2.0,9.0,38,0.00,,,0.00,800.00,VWS V14.01,2013-04-06 18:30:00,
2013-04-06 14:35:00,52.8,27.9,30.25,SW,222,9.0,9.0,38,0.00,,,0.00,796.00,VWS V14.01,2013-04-06 18:35:00,
2013-04-06 14:40:00,53.0,27.4,30.25,SSW,203,2.0,11.0,37,0.00,,,0.00,789.00,VWS V14.01,2013-04-06 18:40:00,
2013-04-06 14:45:00,53.1,27.5,30.24,South,175,6.0,11.0,37,0.00,,,0.00,770.00,VWS V14.01,2013-04-06 18:45:00,
2013-04-06 14:50:00,53.1,26.2,30.24,SSW,205,11.0,11.0,35,0.00,,,0.00,717.00,VWS V14.01,2013-04-06 18:50:00,
2013-04-06 14:55:00,53.3,28.4,30.24,South,172,3.0,5.0,38,0.00,,,0.00,703.00,VWS V14.01,2013-04-06 18:55:00,
2013-04-06 15:01:00,53.5,27.2,30.23,SSE,161,3.0,5.0,36,0.00,,,0.00,721.00,VWS V14.01,2013-04-06 19:01:00,
2013-04-06 15:06:00,53.5,26.5,30.23,SSE,164,5.0,8.0,35,0.00,,,0.00,700.00,VWS V14.01,2013-04-06 19:06:00,
2013-04-06 15:11:00,53.3,26.4,30.23,SSE,152,3.0,4.0,35,0.00,,,0.00,747.00,VWS V14.01,2013-04-06 19:11:00,
2013-04-06 15:16:00,53.3,28.4,30.23,SSW,205,0.0,0.0,38,0.00,,,0.00,742.00,VWS V14.01,2013-04-06 19:16:00,
2013-04-06 15:21:00,53.8,27.5,30.23,SE,131,1.0,2.0,36,0.00,,,0.00,740.00,VWS V14.01,2013-04-06 19:21:00,
2013-04-06 15:27:00,54.1,27.8,30.23,SSW,209,6.0,11.0,36,0.00,,,0.00,714.00,VWS V14.01,2013-04-06 19:27:00,
2013-04-06 15:31:00,53.9,26.2,30.22,SSE,158,2.0,2.0,34,0.00,,,0.00,710.00,VWS V14.01,2013-04-06 19:31:00,
2013-04-06 15:37:00,54.2,26.5,30.22,SE,128,0.0,9.0,34,0.00,,,0.00,712.00,VWS V14.01,2013-04-06 19:37:00,
2013-04-06 15:42:00,54.4,26.6,30.22,SSE,155,0.0,8.0,34,0.00,,,0.00,698.00,VWS V14.01,2013-04-06 19:42:00,
2013-04-06 15:47:00,54.6,28.9,30.21,SSW,208,7.0,7.0,37,0.00,,,0.00,689.00,VWS V14.01,2013-04-06 19:47:00,
2013-04-06 15:52:00,54.5,26.7,30.21,South,190,4.0,9.0,34,0.00,,,0.00,650.00,VWS V14.01,2013-04-06 19:52:00,
2013-04-06 15:57:00,54.4,27.3,30.21,South,191,2.0,9.0,35,0.00,,,0.00,654.00,VWS V14.01,2013-04-06 19:57:00,
2013-04-06 16:03:00,54.4,24.4,30.21,SW,223,5.0,9.0,31,0.00,,,0.00,645.00,VWS V14.01,2013-04-06 20:03:00,
2013-04-06 16:08:00,54.5,26.7,30.21,SSW,213,5.0,7.0,34,0.00,,,0.00,626.00,VWS V14.01,2013-04-06 20:08:00,
2013-04-06 16:13:00,54.6,24.6,30.21,SSE,161,6.0,7.0,31,0.00,,,0.00,617.00,VWS V14.01,2013-04-06 20:13:00,
2013-04-06 16:18:00,54.4,25.9,30.21,South,181,0.0,4.0,33,0.00,,,0.00,527.00,VWS V14.01,2013-04-06 20:18:00,
2013-04-06 16:23:00,54.4,24.4,30.21,SSW,209,5.0,10.0,31,0.00,,,0.00,585.00,VWS V14.01,2013-04-06 20:23:00,
2013-04-06 16:28:00,54.4,25.2,30.20,South,186,4.0,8.0,32,0.00,,,0.00,575.00,VWS V14.01,2013-04-06 20:28:00,
2013-04-06 16:33:00,54.4,25.9,30.20,South,188,0.0,4.0,33,0.00,,,0.00,561.00,VWS V14.01,2013-04-06 20:33:00,
2013-04-06 16:38:00,54.7,26.2,30.20,SSW,205,2.0,5.0,33,0.00,,,0.00,547.00,VWS V14.01,2013-04-06 20:38:00,
2013-04-06 16:43:00,55.1,27.3,30.20,South,182,5.0,10.0,34,0.00,,,0.00,533.00,VWS V14.01,2013-04-06 20:43:00,
2013-04-06 16:49:00,55.1,28.0,30.20,SSW,199,5.0,7.0,35,0.00,,,0.00,515.00,VWS V14.01,2013-04-06 20:49:00,
2013-04-06 16:54:00,55.1,26.5,30.20,WSW,250,0.0,7.0,33,0.00,,,0.00,499.00,VWS V14.01,2013-04-06 20:54:00,
2013-04-06 16:59:00,55.1,27.3,30.20,SSE,161,0.0,7.0,34,0.00,,,0.00,483.00,VWS V14.01,2013-04-06 20:59:00,
2013-04-06 17:05:00,55.4,28.2,30.20,SSE,152,0.0,4.0,35,0.00,,,0.00,468.00,VWS V14.01,2013-04-06 21:05:00,
2013-04-06 17:10:00,55.7,27.8,30.20,SSE,159,5.0,8.0,34,0.00,,,0.00,450.00,VWS V14.01,2013-04-06 21:10:00,
2013-04-06 17:15:00,55.5,27.6,30.20,SE,144,0.0,11.0,34,0.00,,,0.00,439.00,VWS V14.01,2013-04-06 21:15:00,
2013-04-06 17:20:00,55.5,28.3,30.20,South,190,6.0,7.0,35,0.00,,,0.00,422.00,VWS V14.01,2013-04-06 21:20:00,
2013-04-06 17:25:00,55.4,27.5,30.20,SE,130,5.0,8.0,34,0.00,,,0.00,380.00,VWS V14.01,2013-04-06 21:25:00,
2013-04-06 17:30:00,55.4,28.2,30.20,South,185,1.0,1.0,35,0.00,,,0.00,385.00,VWS V14.01,2013-04-06 21:30:00,
2013-04-06 17:35:00,55.4,26.8,30.20,South,172,1.0,1.0,33,0.00,,,0.00,378.00,VWS V14.01,2013-04-06 21:35:00,
2013-04-06 17:41:00,55.4,28.9,30.20,SSE,163,0.0,0.0,36,0.00,,,0.00,360.00,VWS V14.01,2013-04-06 21:41:00,
2013-04-06 17:46:00,55.4,27.5,30.20,SSE,160,2.0,5.0,34,0.00,,,0.00,320.00,VWS V14.01,2013-04-06 21:46:00,
2013-04-06 17:51:00,55.3,28.1,30.20,SE,128,5.0,5.0,35,0.00,,,0.00,306.00,VWS V14.01,2013-04-06 21:51:00,
2013-04-06 17:56:00,55.2,28.0,30.20,South,174,0.0,1.0,35,0.00,,,0.00,294.00,VWS V14.01,2013-04-06 21:56:00,
2013-04-06 18:01:00,55.0,28.6,30.20,SSE,157,0.0,2.0,36,0.00,,,0.00,272.00,VWS V14.01,2013-04-06 22:01:00,
2013-04-06 18:06:00,54.9,26.4,30.20,SSE,153,7.0,8.0,33,0.00,,,0.00,265.00,VWS V14.01,2013-04-06 22:06:00,
2013-04-06 18:12:00,54.8,27.7,30.20,SSE,147,5.0,5.0,35,0.00,,,0.00,232.00,VWS V14.01,2013-04-06 22:12:00,
2013-04-06 18:17:00,54.7,26.9,30.20,South,169,0.0,4.0,34,0.00,,,0.00,227.00,VWS V14.01,2013-04-06 22:17:00,
2013-04-06 18:22:00,54.6,26.8,30.20,South,170,6.0,7.0,34,0.00,,,0.00,183.00,VWS V14.01,2013-04-06 22:22:00,
2013-04-06 18:27:00,54.5,27.4,30.20,SSE,156,3.0,6.0,35,0.00,,,0.00,171.00,VWS V14.01,2013-04-06 22:27:00,
2013-04-06 18:32:00,54.2,26.5,30.20,SSE,159,0.0,7.0,34,0.00,,,0.00,132.00,VWS V14.01,2013-04-06 22:32:00,
2013-04-06 18:38:00,53.9,26.2,30.20,SSE,164,4.0,5.0,34,0.00,,,0.00,107.00,VWS V14.01,2013-04-06 22:38:00,
2013-04-06 18:43:00,53.6,25.9,30.20,SSE,155,1.0,6.0,34,0.00,,,0.00,95.00,VWS V14.01,2013-04-06 22:43:00,
2013-04-06 18:48:00,53.4,25.8,30.20,South,172,1.0,6.0,34,0.00,,,0.00,86.00,VWS V14.01,2013-04-06 22:48:00,
2013-04-06 18:53:00,53.2,26.3,30.20,South,173,0.0,3.0,35,0.00,,,0.00,74.00,VWS V14.01,2013-04-06 22:53:00,
2013-04-06 18:58:00,53.0,26.8,30.20,SSE,149,0.0,4.0,36,0.00,,,0.00,44.00,VWS V14.01,2013-04-06 22:58:00,
2013-04-06 19:03:00,52.8,25.9,30.20,SSE,156,0.0,5.0,35,0.00,,,0.00,39.00,VWS V14.01,2013-04-06 23:03:00,
2013-04-06 19:08:00,52.6,27.1,30.20,SSE,165,0.0,2.0,37,0.00,,,0.00,32.00,VWS V14.01,2013-04-06 23:08:00,
2013-04-06 19:13:00,52.3,26.8,30.20,SSE,150,4.0,4.0,37,0.00,,,0.00,26.00,VWS V14.01,2013-04-06 23:13:00,
2013-04-06 19:18:00,52.0,26.5,30.20,South,171,0.0,2.0,37,0.00,,,0.00,21.00,VWS V14.01,2013-04-06 23:18:00,
2013-04-06 19:24:00,51.7,26.3,30.19,SSE,165,3.0,5.0,37,0.00,,,0.00,16.00,VWS V14.01,2013-04-06 23:24:00,
2013-04-06 19:29:00,51.4,26.7,30.19,SSE,161,0.0,4.0,38,0.00,,,0.00,11.00,VWS V14.01,2013-04-06 23:29:00,
2013-04-06 19:34:00,51.2,26.5,30.19,SSE,160,0.0,0.0,38,0.00,,,0.00,5.00,VWS V14.01,2013-04-06 23:34:00,
2013-04-06 19:39:00,50.9,26.2,30.19,SSE,160,0.0,0.0,38,0.00,,,0.00,0.00,VWS V14.01,2013-04-06 23:39:00,
2013-04-06 19:44:00,50.6,26.0,30.20,SSE,149,0.0,1.0,38,0.00,,,0.00,0.00,VWS V14.01,2013-04-06 23:44:00,
2013-04-06 19:49:00,50.4,25.8,30.20,SSE,149,0.0,0.0,38,0.00,,,0.00,0.00,VWS V14.01,2013-04-06 23:49:00,
2013-04-06 19:55:00,50.1,26.1,30.19,SSE,149,0.0,0.0,39,0.00,,,0.00,0.00,VWS V14.01,2013-04-06 23:55:00,
2013-04-06 20:00:00,49.9,26.0,30.20,SSE,149,0.0,0.0,39,0.00,,,0.00,0.00,VWS V14.01,2013-04-07 00:00:00,
2013-04-06 20:05:00,49.6,25.7,30.19,SSE,149,0.0,0.0,39,0.00,,,0.00,0.00,VWS V14.01,2013-04-07 00:05:00,
2013-04-06 20:10:00,49.4,26.1,30.19,SSE,149,0.0,0.0,40,0.00,,,0.00,0.00,VWS V14.01,2013-04-07 00:10:00,
2013-04-06 20:15:00,49.2,25.3,30.19,SSE,149,0.0,0.0,39,0.00,,,0.00,0.00,VWS V14.01,2013-04-07 00:15:00,
2013-04-06 20:20:00,49.1,25.8,30.19,SSE,149,0.0,0.0,40,0.00,,,0.00,0.00,VWS V14.01,2013-04-07 00:20:00,
2013-04-06 20:25:00,49.0,25.8,30.19,SSE,149,0.0,0.0,40,0.00,,,0.00,0.00,VWS V14.01,2013-04-07 00:25:00,
2013-04-06 20:30:00,48.7,25.5,30.20,SSE,149,0.0,0.0,40,0.00,,,0.00,0.00,VWS V14.01,2013-04-07 00:30:00,
2013-04-06 20:35:00,48.6,25.4,30.19,SSE,149,0.0,0.0,40,0.00,,,0.00,0.00,VWS V14.01,2013-04-07 00:35:00,
2013-04-06 20:40:00,48.5,25.3,30.19,SSE,149,0.0,0.0,40,0.00,,,0.00,0.00,VWS V14.01,2013-04-07 00:40:00,
2013-04-06 20:46:00,48.3,25.7,30.20,SSE,149,0.0,0.0,41,0.00,,,0.00,0.00,VWS V14.01,2013-04-07 00:46:00,
2013-04-06 20:51:00,48.2,26.2,30.20,SSE,149,0.0,0.0,42,0.00,,,0.00,0.00,VWS V14.01,2013-04-07 00:51:00,
2013-04-06 20:56:00,48.0,26.0,30.20,SSE,159,0.0,0.0,42,0.00,,,0.00,0.00,VWS V14.01,2013-04-07 00:56:00,
2013-04-06 21:01:00,47.9,25.4,30.20,SSE,159,0.0,4.0,41,0.00,,,0.00,0.00,VWS V14.01,2013-04-07 01:01:00,
2013-04-06 21:06:00,48.0,25.4,30.20,South,169,1.0,6.0,41,0.00,,,0.00,0.00,VWS V14.01,2013-04-07 01:06:00,
2013-04-06 21:12:00,48.3,25.7,30.20,SSE,158,0.0,2.0,41,0.00,,,0.00,0.00,VWS V14.01,2013-04-07 01:12:00,
2013-04-06 21:17:00,48.4,25.2,30.20,South,171,0.0,3.0,40,0.00,,,0.00,0.00,VWS V14.01,2013-04-07 01:17:00,
2013-04-06 21:22:00,48.6,26.0,30.20,South,183,0.0,2.0,41,0.00,,,0.00,0.00,VWS V14.01,2013-04-07 01:22:00,
2013-04-06 21:27:00,48.7,25.5,30.20,SE,145,0.0,5.0,40,0.00,,,0.00,0.00,VWS V14.01,2013-04-07 01:27:00,
2013-04-06 21:32:00,48.8,26.7,30.20,South,183,2.0,4.0,42,0.00,,,0.00,0.00,VWS V14.01,2013-04-07 01:32:00,
2013-04-06 21:37:00,48.8,26.2,30.20,South,175,2.0,8.0,41,0.00,,,0.00,0.00,VWS V14.01,2013-04-07 01:37:00,
2013-04-06 21:42:00,48.8,26.7,30.20,South,191,3.0,8.0,42,0.00,,,0.00,0.00,VWS V14.01,2013-04-07 01:42:00,
2013-04-06 21:47:00,48.7,27.8,30.20,SSE,157,0.0,4.0,44,0.00,,,0.00,0.00,VWS V14.01,2013-04-07 01:47:00,
2013-04-06 21:52:00,48.4,27.5,30.20,South,171,5.0,6.0,44,0.00,,,0.00,0.00,VWS V14.01,2013-04-07 01:52:00,
2013-04-06 21:57:00,48.2,26.8,30.20,SSE,163,5.0,6.0,43,0.00,,,0.00,0.00,VWS V14.01,2013-04-07 01:57:00,
2013-04-06 22:03:00,48.0,27.1,30.20,South,169,2.0,8.0,44,0.00,,,0.00,0.00,VWS V14.01,2013-04-07 02:03:00,
2013-04-06 22:08:00,47.8,27.0,30.21,South,169,2.0,9.0,44,0.00,,,0.00,0.00,VWS V14.01,2013-04-07 02:08:00,
2013-04-06 22:13:00,47.6,26.8,30.21,SSE,164,6.0,8.0,44,0.00,,,0.00,0.00,VWS V14.01,2013-04-07 02:13:00,
2013-04-06 22:18:00,47.5,26.7,30.21,South,176,4.0,7.0,44,0.00,,,0.00,0.00,VWS V14.01,2013-04-07 02:18:00,
2013-04-06 22:23:00,47.4,27.1,30.21,SSE,166,4.0,7.0,45,0.00,,,0.00,0.00,VWS V14.01,2013-04-07 02:23:00,
2013-04-06 22:28:00,47.3,27.0,30.21,SSE,168,1.0,6.0,45,0.00,,,0.00,0.00,VWS V14.01,2013-04-07 02:28:00,
2013-04-06 22:33:00,47.2,26.4,30.21,SSE,167,1.0,7.0,44,0.00,,,0.00,0.00,VWS V14.01,2013-04-07 02:33:00,
2013-04-06 22:39:00,47.0,26.8,30.20,SSE,147,1.0,6.0,45,0.00,,,0.00,0.00,VWS V14.01,2013-04-07 02:39:00,
2013-04-06 22:44:00,46.8,26.0,30.20,South,178,2.0,7.0,44,0.00,,,0.00,0.00,VWS V14.01,2013-04-07 02:44:00,
2013-04-06 22:49:00,46.8,26.0,30.20,SSE,157,6.0,14.0,44,0.00,,,0.00,0.00,VWS V14.01,2013-04-07 02:49:00,
2013-04-06 22:54:00,46.8,26.0,30.20,South,189,6.0,13.0,44,0.00,,,0.00,0.00,VWS V14.01,2013-04-07 02:54:00,
2013-04-06 22:59:00,46.8,26.0,30.20,South,184,4.0,14.0,44,0.00,,,0.00,0.00,VWS V14.01,2013-04-07 02:59:00,
2013-04-06 23:04:00,46.7,26.5,30.21,SSE,165,3.0,10.0,45,0.00,,,0.00,0.00,VWS V14.01,2013-04-07 03:04:00,
2013-04-06 23:09:00,46.6,26.4,30.20,SSW,202,6.0,13.0,45,0.00,,,0.00,0.00,VWS V14.01,2013-04-07 03:09:00,
2013-04-06 23:15:00,46.6,25.9,30.20,South,169,10.0,13.0,44,0.00,,,0.00,0.00,VWS V14.01,2013-04-07 03:15:00,
2013-04-06 23:20:00,46.7,26.0,30.20,SSE,163,6.0,13.0,44,0.00,,,0.00,0.00,VWS V14.01,2013-04-07 03:20:00,
2013-04-06 23:25:00,46.7,26.0,30.20,South,178,11.0,13.0,44,0.00,,,0.00,0.00,VWS V14.01,2013-04-07 03:25:00,
2013-04-06 23:30:00,46.7,26.0,30.20,South,182,6.0,13.0,44,0.00,,,0.00,0.00,VWS V14.01,2013-04-07 03:30:00,
2013-04-06 23:35:00,46.5,25.8,30.20,South,173,0.0,9.0,44,0.00,,,0.00,0.00,VWS V14.01,2013-04-07 03:35:00,
2013-04-06 23:40:00,46.4,25.7,30.20,South,174,2.0,2.0,44,0.00,,,0.00,0.00,VWS V14.01,2013-04-07 03:40:00,
2013-04-06 23:45:00,46.2,25.5,30.20,South,172,3.0,3.0,44,0.00,,,0.00,0.00,VWS V14.01,2013-04-07 03:45:00,
2013-04-06 23:50:00,46.1,26.0,30.20,South,179,2.0,2.0,45,0.00,,,0.00,0.00,VWS V14.01,2013-04-07 03:50:00,
2013-04-06 23:55:00,46.0,25.9,30.20,SSW,209,7.0,14.0,45,0.00,,,0.00,0.00,VWS V14.01,2013-04-07 03:55:00,